{"data":{"norad_id":62890,"epoch":"2026-09-21T19:01:47.407584Z","epoch_age_seconds":56823,"freshness":"FRESH","line1":"1 62890U 25024M   26264.79290981  .00224595  00000+0  16991-2 0  9997","line2":"2 62890  43.0006  79.8470 0001141 256.5044 103.5697 15.70949109 94300","mean_motion":15.70949109,"eccentricity":0.0001141,"inclination_deg":43.0006,"raan_deg":79.847,"arg_perigee_deg":256.5044,"mean_anomaly_deg":103.5697,"bstar":0.0016991,"rev_number":9430,"period_min":91.664331565562,"perigee_km":355.41483973849,"apogee_km":356.95161161399,"semimajor_km":6734.3202256762,"source":"CELESTRAK","updated_at":"2026-09-22T09:00:49.704179Z"}}